User: anonymous   Login
Location: Brede
(50.9167°N, 0.6000°E)
Time: 16:07:22
(UTC+00:00)
Language:

Meteor 2-10 - Orbit

View from above orbital plane
View from above orbital plane
View from above satellite
View from above satellite

Ground track
Ground track

The orbit data is extracted from the following two-line orbital elements,

1 14452U 83109A   20293.11510039  .00000034  00000-0  79443-5 0  9992
2 14452  81.1585 284.8588 0091995  81.9006 279.2598 14.26513680922940
Epoch (UTC): 19 October 2020 02:45:44
Eccentricity: 0.0091995
inclination: 81.1585°
perigee height: 737 km
apogee height: 869 km
right ascension of ascending node: 284.8588°
argument of perigee: 81.9006°
revolutions per day: 14.26513680
mean anomaly at epoch: 279.2598°
orbit number at epoch: 92294

The dashed part of the orbit path shows where the satellite is in the earth's shadow,  

DLR